• In Czech Republic
  • List of Countries
  • For 7 days
  • Water Temperature
  • Satellite Maps
  • Weather Map
  • Weather Widgets
  • user-avatar
    Login

    Hourly Weather Kwilen

    Today, 23 October, Tuesday

    Time Temperature Precipitation Wind Pressure Humidity
    00:00 +5°C° 0 mm 4 mps 761 mmHg 84%
    01:00 +4°C° 0 mm 3 mps 760 mmHg 86%
    02:00 +4°C° 0 mm 4 mps 760 mmHg 86%
    03:00 +4°C° 0 mm 4 mps 759 mmHg 86%
    04:00 +3°C° 0 mm 5 mps 758 mmHg 86%
    05:00 +3°C° 0 mm 6 mps 757 mmHg 83%
    06:00 +3°C° 0 mm 6 mps 756 mmHg 81%
    07:00 +4°C° 0 mm 7 mps 755 mmHg 78%
    08:00 +4°C° 0.2 mm 8 mps 754 mmHg 76%
    09:00 +5°C° 0.2 mm 9 mps 753 mmHg 73%
    10:00 +6°C° 0.2 mm 10 mps 752 mmHg 71%
    11:00 +6°C° 1.1 mm 11 mps 750 mmHg 73%
    12:00 +6°C° 1.1 mm 11 mps 749 mmHg 76%
    13:00 +6°C° 1.1 mm 11 mps 748 mmHg 79%
    14:00 +7°C° 0.5 mm 12 mps 747 mmHg 79%
    15:00 +7°C° 0.5 mm 12 mps 746 mmHg 80%
    16:00 +8°C° 0.5 mm 12 mps 745 mmHg 81%
    17:00 +8°C° 1.4 mm 11 mps 744 mmHg 81%
    18:00 +9°C° 1.4 mm 11 mps 743 mmHg 82%
    19:00 +9°C° 1.4 mm 10 mps 743 mmHg 83%
    20:00 +10°C° 1 mm 9 mps 743 mmHg 82%
    21:00 +8°C° 1 mm 9 mps 742 mmHg 80%
    22:00 +8°C° 1 mm 9 mps 742 mmHg 78%
    23:00 +8°C° 0.2 mm 9 mps 742 mmHg 77%

    Tomorrow, 24 October, Wednesday

    Time Temperature Precipitation Wind Pressure Humidity
    00:00 +7°C° 0.2 mm 9 mps 742 mmHg 76%
    01:00 +7°C° 0.2 mm 9 mps 741 mmHg 75%
    02:00 +7°C° 0.3 mm 10 mps 742 mmHg 72%
    03:00 +6°C° 0.3 mm 10 mps 742 mmHg 69%
    04:00 +6°C° 0.3 mm 11 mps 742 mmHg 66%
    05:00 +5°C° 0.1 mm 10 mps 743 mmHg 66%
    06:00 +5°C° 0.1 mm 9 mps 744 mmHg 65%
    07:00 +4°C° 0.1 mm 8 mps 745 mmHg 65%
    08:00 +5°C° 0 mm 9 mps 745 mmHg 58%
    09:00 +6°C° 0 mm 10 mps 746 mmHg 52%
    10:00 +6°C° 0 mm 11 mps 747 mmHg 45%
    11:00 +7°C° 0 mm 11 mps 747 mmHg 44%
    12:00 +7°C° 0 mm 11 mps 748 mmHg 42%
    13:00 +7°C° 0 mm 11 mps 748 mmHg 41%
    14:00 +7°C° 0 mm 10 mps 749 mmHg 42%
    15:00 +7°C° 0 mm 9 mps 749 mmHg 43%
    16:00 +6°C° 0 mm 8 mps 750 mmHg 44%
    17:00 +6°C° 0 mm 7 mps 750 mmHg 47%
    18:00 +5°C° 0 mm 7 mps 751 mmHg 49%
    19:00 +4°C° 0 mm 6 mps 751 mmHg 52%
    20:00 +4°C° 0 mm 6 mps 752 mmHg 56%
    21:00 +4°C° 0 mm 6 mps 752 mmHg 60%
    22:00 +3°C° 0 mm 6 mps 752 mmHg 64%
    23:00 +3°C° 0 mm 6 mps 752 mmHg 66%

    Day after tomorrow, 25 October, Thursday

    Time Temperature Precipitation Wind Pressure Humidity
    00:00 +3°C° 0 mm 5 mps 752 mmHg 68%
    01:00 +3°C° 0 mm 5 mps 752 mmHg 71%
    02:00 +3°C° 0 mm 5 mps 751 mmHg 73%
    03:00 +3°C° 0 mm 5 mps 751 mmHg 75%
    04:00 +5°C° 0 mm 5 mps 750 mmHg 76%
    05:00 +5°C° 0.8 mm 5 mps 749 mmHg 81%
    06:00 +5°C° 0.8 mm 6 mps 748 mmHg 86%
    07:00 +5°C° 0.8 mm 6 mps 747 mmHg 91%
    08:00 +8°C° 0.6 mm 7 mps 747 mmHg 89%
    09:00 +9°C° 0.6 mm 8 mps 746 mmHg 88%
    10:00 +10°C° 0.6 mm 9 mps 746 mmHg 87%
    11:00 +10°C° 0.5 mm 9 mps 746 mmHg 85%
    12:00 +11°C° 0.5 mm 9 mps 746 mmHg 83%
    13:00 +11°C° 0.5 mm 10 mps 746 mmHg 81%
    14:00 +10°C° 0.4 mm 9 mps 746 mmHg 81%
    15:00 +10°C° 0.4 mm 9 mps 746 mmHg 80%
    16:00 +10°C° 0.4 mm 9 mps 746 mmHg 80%
    17:00 +9°C° 0.2 mm 8 mps 747 mmHg 79%
    18:00 +9°C° 0.2 mm 7 mps 747 mmHg 77%
    19:00 +8°C° 0.2 mm 6 mps 747 mmHg 76%
    20:00 +8°C° 0 mm 6 mps 748 mmHg 77%
    21:00 +7°C° 0 mm 6 mps 748 mmHg 78%
    22:00 +5°C° 0 mm 6 mps 748 mmHg 79%
    23:00 +6°C° 0 mm 5 mps 748 mmHg 80%

    26 October, Friday

    Time Temperature Precipitation Wind Pressure Humidity
    00:00 +6°C° 0 mm 5 mps 749 mmHg 82%
    01:00 +6°C° 0 mm 5 mps 749 mmHg 83%
    02:00 +5°C° 0 mm 5 mps 749 mmHg 84%
    03:00 +5°C° 0 mm 5 mps 749 mmHg 86%
    04:00 +5°C° 0 mm 5 mps 749 mmHg 87%
    05:00 +5°C° 0 mm 5 mps 749 mmHg 86%
    06:00 +5°C° 0 mm 4 mps 749 mmHg 85%
    07:00 +5°C° 0 mm 4 mps 749 mmHg 85%
    08:00 +6°C° 0 mm 4 mps 749 mmHg 80%
    09:00 +7°C° 0 mm 4 mps 749 mmHg 75%
    10:00 +8°C° 0 mm 5 mps 749 mmHg 71%
    11:00 +9°C° 0 mm 5 mps 749 mmHg 73%
    12:00 +10°C° 0 mm 4 mps 748 mmHg 75%
    13:00 +10°C° 0 mm 4 mps 748 mmHg 78%
    14:00 +11°C° 0.1 mm 4 mps 747 mmHg 79%
    15:00 +11°C° 0.1 mm 4 mps 747 mmHg 79%
    16:00 +11°C° 0.1 mm 3 mps 747 mmHg 80%
    17:00 +11°C° 0.1 mm 4 mps 746 mmHg 81%
    18:00 +10°C° 0.1 mm 4 mps 746 mmHg 82%
    19:00 +10°C° 0.1 mm 4 mps 746 mmHg 83%
    20:00 +10°C° 0 mm 4 mps 746 mmHg 83%
    21:00 +8°C° 0 mm 5 mps 745 mmHg 82%
    22:00 +8°C° 0 mm 5 mps 745 mmHg 82%
    23:00 +8°C° 0 mm 5 mps 745 mmHg 81%

    27 October, Saturday

    Time Temperature Precipitation Wind Pressure Humidity
    00:00 +7°C° 0 mm 5 mps 745 mmHg 80%
    01:00 +7°C° 0 mm 5 mps 744 mmHg 80%
    02:00 +7°C° 0 mm 6 mps 744 mmHg 80%
    03:00 +7°C° 0 mm 6 mps 744 mmHg 80%
    04:00 +7°C° 0 mm 6 mps 744 mmHg 80%
    05:00 +7°C° 0 mm 6 mps 744 mmHg 81%
    06:00 +7°C° 0 mm 6 mps 744 mmHg 82%
    07:00 +7°C° 0 mm 6 mps 745 mmHg 82%
    08:00 +7°C° 0 mm 6 mps 745 mmHg 77%
    09:00 +6°C° 0 mm 7 mps 745 mmHg 72%
    10:00 +8°C° 0 mm 7 mps 746 mmHg 67%
    11:00 +8°C° 0 mm 7 mps 746 mmHg 63%
    12:00 +8°C° 0 mm 6 mps 746 mmHg 60%
    13:00 +9°C° 0 mm 6 mps 746 mmHg 57%
    14:00 +8°C° 0 mm 5 mps 747 mmHg 59%
    15:00 +8°C° 0 mm 4 mps 747 mmHg 61%
    16:00 +8°C° 0 mm 3 mps 747 mmHg 63%
    17:00 +8°C° 0 mm 3 mps 747 mmHg 65%
    18:00 +7°C° 0 mm 2 mps 748 mmHg 68%
    19:00 +7°C° 0 mm 2 mps 748 mmHg 70%
    20:00 +6°C° 0 mm 2 mps 748 mmHg 71%
    21:00 +6°C° 0 mm 2 mps 749 mmHg 72%
    22:00 +6°C° 0 mm 2 mps 749 mmHg 73%
    23:00 +6°C° 0 mm 2 mps 749 mmHg 74%

    28 October, Sunday

    Time Temperature Precipitation Wind Pressure Humidity
    00:00 +7°C° 0 mm 1 mps 749 mmHg 75%
    01:00 +7°C° 0 mm 1 mps 749 mmHg 76%
    02:00 +6°C° 0 mm 1 mps 749 mmHg 77%
    03:00 +6°C° 0 mm 1 mps 749 mmHg 79%
    04:00 +6°C° 0 mm 1 mps 749 mmHg 80%
    05:00 +6°C° 0 mm 1 mps 749 mmHg 80%
    06:00 +6°C° 0 mm 1 mps 749 mmHg 81%
    07:00 +6°C° 0 mm 1 mps 749 mmHg 82%
    08:00 +5°C° 0.1 mm 2 mps 749 mmHg 80%
    09:00 +6°C° 0.1 mm 2 mps 749 mmHg 78%
    10:00 +6°C° 0.1 mm 2 mps 749 mmHg 75%
    11:00 +5°C° 0.2 mm 3 mps 749 mmHg 75%
    12:00 +7°C° 0.2 mm 3 mps 749 mmHg 74%
    13:00 +6°C° 0.2 mm 4 mps 749 mmHg 73%
    14:00 +5°C° 0.4 mm 4 mps 749 mmHg 74%
    15:00 +5°C° 0.4 mm 5 mps 748 mmHg 76%
    16:00 +5°C° 0.4 mm 5 mps 748 mmHg 77%
    17:00 +4°C° 0.6 mm 6 mps 748 mmHg 78%
    18:00 +3°C° 0.6 mm 6 mps 748 mmHg 80%
    19:00 +3°C° 0.6 mm 7 mps 748 mmHg 81%
    20:00 +3°C° 1.1 mm 7 mps 747 mmHg 81%
    21:00 +2°C° 1.1 mm 8 mps 747 mmHg 81%
    22:00 +1°C° 1.1 mm 8 mps 747 mmHg 81%
    23:00 +1°C° 1.6 mm 8 mps 746 mmHg 83%

    29 October, Monday

    Time Temperature Precipitation Wind Pressure Humidity
    00:00 +1°C° 1.6 mm 8 mps 745 mmHg 84%
    01:00 0°C° 1.6 mm 8 mps 745 mmHg 86%
    02:00 0°C° 1.1 mm 8 mps 744 mmHg 87%
    03:00 0°C° 1.1 mm 8 mps 743 mmHg 89%
    04:00 -1°C° 1.1 mm 9 mps 743 mmHg 90%
    05:00 -1°C° 1 mm 8 mps 742 mmHg 91%
    06:00 -1°C° 1 mm 8 mps 742 mmHg 91%
    07:00 -1°C° 1 mm 7 mps 741 mmHg 92%
    08:00 -1°C° 0.5 mm 7 mps 741 mmHg 93%
    09:00 -1°C° 0.5 mm 7 mps 741 mmHg 93%
    10:00 +1°C° 0.5 mm 6 mps 740 mmHg 93%
    11:00 +1°C° 0.4 mm 6 mps 740 mmHg 93%
    12:00 +1°C° 0.4 mm 5 mps 739 mmHg 94%
    13:00 +1°C° 0.4 mm 5 mps 739 mmHg 94%
    14:00 +1°C° 0.3 mm 4 mps 739 mmHg 95%
    15:00 +3°C° 0.3 mm 4 mps 738 mmHg 96%
    16:00 +3°C° 0.3 mm 3 mps 738 mmHg 96%
    17:00 +3°C° 0.8 mm 3 mps 738 mmHg 97%
    18:00 +4°C° 0.8 mm 2 mps 738 mmHg 97%
    19:00 +4°C° 0.8 mm 2 mps 738 mmHg 97%
    20:00 +4°C° 0.3 mm 2 mps 737 mmHg 97%
    21:00 +5°C° 0.3 mm 1 mps 737 mmHg 97%
    22:00 +5°C° 0.3 mm 1 mps 737 mmHg 97%
    23:00 +4°C° 0.3 mm 2 mps 737 mmHg 97%
    Show more